Forside
METAR-TAF:

METAR-TAF

Lufthavne :

Albertus Airport

Freeport, Illinois, USA

Breddekreds: 42-14-47N, længdekreds: 089-34-56W, højde: 262 m

Aktuelle vejr

Denne rapport blev lavet for 22 minutter siden, kl. 07:55 UTC
Vind 7 kt fra sydvest
Temperatur 2°C
Fugtighed 87%
Tryk 1016 hPa
Sigt: 16.1 km
skyfri

METAR: KFEP 290755Z AUTO 23007KT 10SM CLR 02/00 A2999 RMK AO2 T00221005

Tid: 02:17 (08:17 UTC)


TAF: fraværende

Vejrobservationer og prognoser fra mere end 4000 lufthavne (METAR og TAF).

De gule og røde prikker repræsenterer de meteorologiske stationer.

Flyt musen over at se navnet på stationen.

Så klik over at se vejr observationer og prognoser.

At skifte det kort: Klik på de grønne knapper med et sort kors for at zoome ind; på den grønne knap med en bindestreg for at zoome ud; eller på de grønne pile for tilstødende kort.


METAR-TAF: